AirNav   ATP
 
 701 users online  

H07 Highland-Winet Airport
Highland, Illinois, USA

GOING TO HIGHLAND?


FAA INFORMATION EFFECTIVE 01 FEBRUARY 2018

Location

FAA Identifier: H07
Lat/Long: 38-46-45.3000N / 089-38-25.6250W
38-46.755000N / 089-38.427083W
38.7792500 / -89.6404514
(estimated)
Elevation: 537 ft. / 163.7 m (surveyed)
Variation: 01E (1985)
From city: 3 miles NE of HIGHLAND, IL
Time zone: UTC -6 (UTC -5 during Daylight Saving Time)
Zip code: 62249

Airport Operations

Airport use: Open to the public
Activation date: 06/1945
Control tower: no
ARTCC: KANSAS CITY CENTER
FSS: SAINT LOUIS FLIGHT SERVICE STATION
NOTAMs facility: STL (NOTAM-D service available)
Attendance: UNATNDD
Pattern altitude: 1337 ft. MSL
Wind indicator: yes
Segmented circle: yes
SEGMENTED CIRCLE AT NORTH END WITH LANDING STRIP INDICATIONS ONLY

Airport Communications

CTAF: 122.9
WX AWOS-A at GRE (13 nm E): 123.05 (618-664-1939)

Nearby radio navigation aids

VOR radial/distance  VOR name  Freq  Var
TOYr076/13.2TROY VORTAC116.0004E
VLAr226/29.2VANDALIA VORTAC114.3004E
ENLr310/31.2CENTRALIA VORTAC115.0004E
CSXr087/33.7CARDINAL VOR/DME116.4500E
STLr096/39.7ST LOUIS VORTAC117.4001E

 
NDB name  Hdg/Dist  Freq  Var  ID
ALPOS109/14.621801WAL .- .-..
CIVIC MEMORIAL110/20.626301WCVM -.-. ...- --
SALEM285/32.540001WSLO ... .-.. ---

Airport Services

Parking: hangars and tiedowns
Powerplant service: NONE
Bottled oxygen: NONE
Bulk oxygen: NONE

Runway Information

Runway 18/36

Dimensions: 2200 x 100 ft. / 671 x 30 m
Surface: turf, in good condition
Runway edge markings: RWY 18/36 DSPLCD THLDS MKD WITH WHITE IN-GROUND MARKINGS; ALSO BOTH SIDES OF RWYS MARKED WITH WHITE IN-GROUND STRIPES.
RUNWAY 18  RUNWAY 36
Traffic pattern: leftright
Displaced threshold: 180 ft.354 ft.
Obstructions: none15 ft. road, 210 ft. from runway, 145 ft. right of centerline, 14:1 slope to clear
RY 36 CLNC SLOPE IS 37:1 TO DSPLCD THLD.

Airport Ownership and Management from official FAA records

Ownership: Privately-owned
Owner: ST LOUIS SOARING ASSN INC
13427 LUBER DR.
HIGHLAND, IL 62249
Phone 618-654-3511
Manager: MAX GIESEKE
12545 AUTUMN LANE.
HIGHLAND, IL 62249
Phone (618) 977-9063

Airport Operational Statistics

Aircraft based on the field: 25
Single engine airplanes: 6
Gliders airplanes: 19
    
Aircraft operations: avg 38/week *
90% local general aviation
10% transient general aviation
* for 12-month period ending 31 August 2015

Additional Remarks

EXTSV GLIDER OPNS ALONG WEST SIDE OF RY; GLIDERS FLY OPPOSITE PTN TO POWERED ACFT.
TO ASSURE FIRM TURF; DO NOT TAXI SOUTH OF ABOVE GND FUEL TANK.
ADMIN BLDG CAN BE ACCESSED BY PUSHING NOS 2&4 TOGETHER; THEN 3
FOR CD CTC STL APCH AT 314-890-1017.

Instrument Procedures

There are no published instrument procedures at H07.

Some nearby airports with instrument procedures:

3K6 - St Louis Metro-East Airport/Shafer Field (8 nm W)
KGRE - Greenville Airport (13 nm E)
KBLV - Scott Air Force Base/MidAmerica Airport (17 nm SW)
KALN - St Louis Regional Airport (20 nm W)
3LF - Litchfield Municipal Airport (23 nm N)
 
Loc | Ops | Rwys | IFR | FBO | Links
Com | Nav | Svcs | Stats | Notes

AirNav Hotels Sweepstakes
 
Area around H07 (Highland-Winet Airport)
 
Road maps at: MapQuest Bing Google
 
Aerial photo
No photo
 
Sectional chart

 
Airport distance calculator
Flying to Highland-Winet Airport? Find the distance to fly.

From to H07

Sunrise and sunset
Times for 23-Feb-2018
 Local
(UTC-6)
 Zulu
(UTC)
Morning civil twilight06:1312:13
Sunrise06:4012:40
Sunset17:4423:44
Evening civil twilight18:1100:11

Current date and time
Zulu (UTC)  23-Feb-2018 12:50:47
Local (UTC-6)  23-Feb-2018 06:50:47
 
METAR
KBLV 
17nm SW 
231231Z AUTO 26008KT 10SM BKN011 OVC040 08/07 A3021 RMK AO2 CIG 011V040 BKN V SCT CIG 010 RWY32R SLP235 $
KALN 
19nm W 
231235Z AUTO 26009KT 10SM BKN012 OVC017 07/07 A3022 RMK AO2 T00700070
K3LF 
23nm N 
231235Z AUTO 26008KT 10SM OVC007 07/07 A3020 RMK AO2 T00700067
KCPS 
27nm SW 
231209Z AUTO 26005KT 10SM BKN015 BKN045 08/07 RMK AO2 T00830067 TSNO $
KENL 
30nm SE 
231235Z AUTO 26007KT 5SM BR OVC005 09/09 A3022 RMK AO2 LTG DSNT SE T00900090
KSLO 
32nm E 
231235Z AUTO 25007KT 3SM BR OVC004 09/08 A3021 RMK AO2 LTG DSNT SE T00920084
KSTL 
34nm W 
231206Z 27009KT 10SM FEW005 SCT013 OVC032 08/07 A3021 RMK AO2 T00780072
TAF
KBLV 
17nm SW 
231222Z 2312/2414 28006KT 9999 SCT009 OVC040 QNH3019INS BECMG 2314/2315 28006KT 9999 FEW010 SCT040 QNH3023INS BECMG 2320/2321 28006KT 9999 SCT005 BKN020 QNH3014INS BECMG 2404/2405 08009KT 8000 -RA OVC004 QNH3005INS BECMG 2408/2409 08009KT 4800 -RA OVC004 QNH2993INS TX13/2319Z TN07/2408Z
NOTAMs
Click for the latest NOTAMs
NOTAMs are issued by the DoD/FAA and will open in a separate window not controlled by AirNav.

 

 
 

Would you like to see your business listed on this page?

 If your business provides an interesting product or service to pilots, flight crews, aircraft, or users of the Highland-Winet Airport, you should consider listing it here.  To start the listing process, click on the button below
 
Add a business
 

Other Pages about Highland-Winet Airport

Update a link
 
Copyright © AirNav, LLC. All rights reserved. Privacy Policy  Contact